Location: Ammerl�gen
(47.2167°N, 9.6000°E)
Time: 12:42:08
(UTC+00:00)

Cosmos 676 Rocket - Pass Details

Date: 05 August 2021
Orbit: 755 x 783 km, 74.0° (Epoch: 26 September)

Event Time Altitude Azimuth Distance (km) Brightness Sun altitude
Exits shadow 23:01:36 11° 91° (E) 2,261 6.3 -25.8°
Drops below altitude 10° 23:03:02 10° 75° (ENE) 2,344 6.6 -25.8°
Sets 23:07:20 0° 42° (NE) 3,277 7.9 -25.9°
